PROFILE

 METAR AND TAF INFORMATION
ADDS - METARS form results

(0000 UTC 27 May 2019)
http://aviationweather.gov/metar/data/
 
GOBD 262330Z 33008KT 9000 NSC 21/19 Q1014 NOSIG
TAF GOBD 262330Z 2700/2806 34010KT 9999 SCT010 

 AIRPORT MAP

 RUNWAY INFORMATION
Runway 01 Runway length 11483 ft Runway width 197 ft
Runway elevation 272 ft Runway displaced threshold 0 ft Runway heading 7
Runway 19 Runway length 11483 ft Runway width 197 ft
Runway elevation 251 ft Runway displaced threshold 0 ft Runway heading 187

 AIRPORT FREQUENCIES
Type GND Name Dakar GND Frequency 121.8 MHZ
Type A/D Name Dakar TWR Frequency 118.8 MHZ
Type ATIS Name Dakar ATIS Frequency 126.6 MHZ
Type APP Name Dakar APP Frequency 120.5 MHZ

 AIRPORT NEAR NAVIGATION AIDS